Weather in Dovatorovka

Russia / Kaliningrad Oblast     54°39′09″N   21°44′10″E
temp.,
°C
wind,
m/s
gust,
m/s
humid.,
%
clouds,
%
prec.,
mm/h
press.,
hPa
HPBL,
m
16 may, sun
sun1623:00+7ese1195100 0.0 100910
02:00+7ese2298100 0.0 100830
05:00+8se239594 0.0 100845
08:00+13se3583100 0.0 1008258
11:00+17sse456799 0.3 10071078
14:00+15se4882100 2.8 1006454
17:00+17se598194 1.6 1004948
20:00+13se3893100 4.2 1003169
17 may, mon
mon1723:00+13s3796100 1.2 1003188
02:00+11s3697100 1.9 1003207
05:00+10ssw3797100 0.0 1004173
08:00+13ssw46850 0.0 1005403
11:00+17ssw34650 0.0 10061103
14:00+19ssw22550 0.0 10061526
17:00+19se12560 0.0 10051498
20:00+14ne227361 0.0 100415
18 may, tue
tue1823:00+11ne227998 0.0 100421
02:00+10ne3385100 0.0 100437
05:00+9nne128977 0.0 100310
08:00+14nne127899 0.0 1004226
11:00+18nnw11653 0.0 1004971
14:00+19w2264100 0.8 10041230
17:00+14wnw578775 1.8 1005443
20:00+10wnw4991100 1.9 1007327
19 may, wed
wed1923:00+8wnw499293 0.0 1007294
02:00+9wnw51090100 0.0 1008434
05:00+9wnw4895100 0.0 1009405
08:00+11wnw6984100 0.0 1010696
11:00+13nw5774100 0.0 1010912
14:00+15nw5671100 0.1 10101132
17:00+13nw6775100 0.1 1010670
20:00+10wnw4887100 0.1 1011298
20 may, thu
thu2023:00+7wnw3798100 0.0 1011161
02:00+6w3796100 0.0 1011146
05:00+6w3695100 0.0 1011117
08:00+10w3579100 0.0 1011360
11:00+15wnw4560100 0.0 10111234
14:00+15nw6759100 0.0 10111067
17:00+12wnw6974100 0.0 1012620
20:00+9wnw5108098 0.0 1013411